Showing default

PRAETORIAN SDA_613, 65576

Orbit data source: Space-Track

PRAETORIAN SDA_613, 65576 is a payload satellite owned by SDA (US) in LEO that was launched on Wed, 10 Sep 2025 UTC via an FALCON 9 launch vehicle from the Air Force Western Test Range (AFWTR). Payload-class satellites include a variety of spacecraft equipped with specific instruments for various scientific and technological missions. These include communications satellites like Starlink; space stations such as the ISS; scientific satellites like the Hubble; Earth observation satellites from companies like Planet Labs, Umbra, and HawkEye 360; GPS; miniature CubeSats for education and research; and military/defense satellites.

Loading next visibility...
Identifier
65576, 2025-203M
Orbit
LEO
Country
Flag of USUS
Related business
Manufacturer
York Space Sys
Mission
Operational Defense Communications
Bus & Motor
S-CLASS, Unknown motor
Mass
~300 kg wet, ~300 kg dry
Launch date (UTC)
2025-09-10 (9 months ago)
Launch vehicle
FALCON 9
Launch site
Air Force Western Test Range (AFWTR)
Object type
Payload
Rocket body
Debris
Shape & HBR
Box + 4 Pan, 14.5 m
Radar Cross Section
1.244 m², Large (>1 m²)

Expand to show TLE details & history
Last TLE update: 21 hours ago

TLE from 21 hours ago
0 PRAETORIAN SDA_613
1 65576U 25203M   26170.95751025  .00000045  00000-0  30652-4 0  9990
2 65576  81.2998   8.3673 0005720 176.1966 183.9234 13.82765296 39062
Epoch: 2026-06-19T22:58Z
TLE epoch observation values (Epoch: 2026-06-19T22:58:48.885Z)
Latitude
-0.00007°
Longitude
115.48457°
Altitude
961.144 km
Speed
7.369 km/s
True Right ascension
00h 33m 28s
True Declination
0° 00' 00"
Sunlit
Object was in daylight at epoch
Visualization orbit readout
Latitude
Unknown
Longitude
Unknown
Altitude
Unknown
Speed
Unknown
Apparent Right ascension
Unknown
Apparent Declination
Unknown
Sunlit
N/A
Visualization observer readout
Local Sidereal Time
07:12:48
Azimuth
Unknown
Elevation
Unknown
Doppler factor
Unknown
Orbital elements
Apogee altitude
955.496 km
Perigee altitude
947.111 km
Semi-major axis
7,329.44 km
Eccentricity
0.00057
Inclination
81.2998°
RAAN
8.3673°
Arg. of periapsis
176.1966°
True anomaly
183.91892°
Mean anomaly
183.9234°
Eccentric anomaly
183.92116°
Mean motion
3.45889 °/min
Orbital period
104.08 mins
BSTAR
0.000030652
Loading maneuver chart data...
Computing Atmospheric mass density...
Loading historical data...
Loading historical data...
Loading historical data...
Loading historical data...
Loading historical data...
Loading historical data...
Loading historical data...

Documentation

Showing up to 5 results
|